Hourly Data Report for April 21, 2017

OTTAWA INTL A
ONTARIO

45°19'00.000" N
75°40'00.000" W
114.90 m
6106001
71628
YOW

Download Data

Hourly Data (April 2017)
Hourly Data Report for April 21, 2017
TIME
LST
Temp Definition
°C
Dew Point Definition
°C
Rel Hum Definition
%
Precip. Amount Definition
mm

Wind Dir Definition
10's deg

Wind Spd Definition
km/h
Visibility Definition
km
Stn Press Definition
kPa
Hmdx Definition


Wind Chill Definition


Weather Definition


00:00 6.5 5.1 91   9 34 16.1 100.07     Rain
01:00 6.5 5.3 92   8 30 16.1 99.92     Rain
02:00 6.4 5.2 92   8 30 16.1 99.80     Rain
03:00 6.0 5.6 97   9 33 4.0 99.69     Rain, Drizzle, Fog
04:00 5.9 5.6 98   9 33 6.4 99.55     Rain, Fog
05:00 6.2 6.1 99   9 29 4.8 99.48     Drizzle, Fog
06:00 6.8 6.7 99   8 24 4.8 99.45     Drizzle, Fog
07:00 7.5 7.4 99   10 25 4.8 99.40     Drizzle, Fog
08:00 8.2 8.1 99   11 17 3.2 99.35     Drizzle, Fog
09:00 8.9 8.9 100   12 11 2.4 99.34     Drizzle, Fog
10:00 10.3 10.2 99   19 12 9.7 99.36     Drizzle, Fog
11:00 11.2 10.1 93   23 25 24.1 99.37     LegendNANA
12:00 13.4 9.7 78   23 19 24.1 99.39     LegendNANA
13:00 15.0 6.9 58   23 29 24.1 99.37     Mostly Cloudy
14:00 14.2 6.6 60   21 14 24.1 99.34     LegendNANA
15:00 13.1 7.6 69   32 13 24.1 99.40     LegendNANA
16:00 12.0 7.6 74   21 9 24.1 99.41     Mostly Cloudy
17:00 12.8 6.9 67   26 21 24.1 99.50     LegendNANA
18:00 11.3 7.3 76   23 18 24.1 99.55     LegendNANA
19:00 8.9 7.0 88   30 20 24.1 99.69     Rain
20:00 8.6 5.9 83   29 13 24.1 99.75     Rain
21:00 8.2 5.2 81   29 10 24.1 99.80     LegendNANA
22:00 7.9 4.5 79   29 14 24.1 99.85     Mostly Cloudy
23:00 7.5 4.1 79   26 19 24.1 99.84     LegendNANA

Notes on Data Quality.

Legend

  • E = Estimated
  • M = Missing
  • NA = Not Available*
  • [empty] = Indicates an unobserved value
Date modified: